TimeGMT,TemperatureF,Dew PointF,Humidity,Sea Level PressureIn,VisibilityMPH,Wind Direction,Wind SpeedMPH,Gust SpeedMPH,PrecipitationIn,Events,Conditions,WindDirDegrees,DateUTC
2:50 AM,49,44,76,29.89,25,WSW,13.8,,,,Partly Cloudy,250,2013-02-04 02:50:00
5:50 AM,49,46,84,29.89,31,West,9.2,,,,Mostly Cloudy,260,2013-02-04 05:50:00
6:50 AM,48.2,44.6,87,29.89,6.2,West,12.7,-,N/A,,Scattered Clouds,260,2013-02-04 06:50:00
7:20 AM,48.2,44.6,87,29.89,6.2,West,12.7,-,N/A,,Scattered Clouds,260,2013-02-04 07:20:00
7:50 AM,50.0,42.8,76,29.92,6.2,West,11.5,-,N/A,,Scattered Clouds,260,2013-02-04 07:50:00
8:20 AM,50.0,42.8,76,29.92,6.2,West,13.8,27.6,N/A,,Scattered Clouds,270,2013-02-04 08:20:00
8:50 AM,50,42,66,29.94,31,West,13.8,,,,Scattered Clouds,280,2013-02-04 08:50:00
8:50 AM,48.2,41.0,76,29.92,6.2,West,12.7,-,N/A,,Scattered Clouds,270,2013-02-04 08:50:00
9:20 AM,48.2,41.0,76,29.95,6.2,West,12.7,-,N/A,,Scattered Clouds,280,2013-02-04 09:20:00
11:20 AM,48.2,37.4,66,29.98,6.2,West,13.8,36.8,N/A,,Mostly Cloudy,270,2013-02-04 11:20:00
11:50 AM,49,34,44,29.97,15,WNW,19.6,,,,Mostly Cloudy,290,2013-02-04 11:50:00
11:50 AM,48.2,35.6,62,29.98,6.2,West,15.0,29.9,N/A,,Scattered Clouds,280,2013-02-04 11:50:00
12:20 PM,48.2,32.0,54,29.98,6.2,WNW,16.1,27.6,N/A,,Mostly Cloudy,290,2013-02-04 12:20:00
12:50 PM,50.0,33.8,54,29.95,6.2,West,15.0,-,N/A,,Mostly Cloudy,280,2013-02-04 12:50:00
1:20 PM,48.2,35.6,62,29.95,6.2,West,15.0,26.5,N/A,,Mostly Cloudy,280,2013-02-04 13:20:00
1:50 PM,48.2,33.8,58,29.95,6.2,WNW,15.0,-,N/A,,Scattered Clouds,290,2013-02-04 13:50:00
2:20 PM,48.2,32.0,54,29.95,6.2,West,11.5,-,N/A,,Mostly Cloudy,280,2013-02-04 14:20:00
2:50 PM,49,31,37,29.95,19,WNW,20.7,,,,Mostly Cloudy,290,2013-02-04 14:50:00
3:20 PM,48.2,33.8,58,29.95,6.2,West,17.3,28.8,N/A,,Scattered Clouds,260,2013-02-04 15:20:00
3:50 PM,46.4,35.6,66,29.95,6.2,West,19.6,-,N/A,,Partly Cloudy,260,2013-02-04 15:50:00
4:20 PM,46.4,35.6,66,29.95,6.2,West,18.4,-,N/A,,Partly Cloudy,260,2013-02-04 16:20:00
4:50 PM,46.4,35.6,66,29.95,6.2,West,13.8,-,N/A,,Partly Cloudy,260,2013-02-04 16:50:00
5:20 PM,44.6,35.6,71,29.92,-9999.0,West,17.3,-,N/A,,Clear,260,2013-02-04 17:20:00
5:50 PM,45,35,56,29.94,12,West,16.1,,,,Mostly Cloudy,260,2013-02-04 17:50:00
5:50 PM,44.6,35.6,71,29.92,-9999.0,West,16.1,-,N/A,,Clear,260,2013-02-04 17:50:00
6:20 PM,44.6,35.6,71,29.92,-9999.0,West,17.3,-,N/A,,Clear,260,2013-02-04 18:20:00
6:50 PM,42.8,35.6,76,29.92,-9999.0,WSW,11.5,-,N/A,,Clear,250,2013-02-04 18:50:00
7:20 PM,42.8,35.6,76,29.92,-9999.0,WSW,16.1,-,N/A,,Clear,250,2013-02-04 19:20:00
7:50 PM,42.8,35.6,76,29.89,-9999.0,WSW,13.8,-,N/A,,Clear,250,2013-02-04 19:50:00
8:20 PM,42.8,33.8,70,29.89,6.2,WSW,11.5,-,N/A,,Partly Cloudy,240,2013-02-04 20:20:00
8:50 PM,44,35,59,29.89,14,WSW,11.5,,,,Partly Cloudy,250,2013-02-04 20:50:00
8:50 PM,42.8,33.8,70,29.89,6.2,WSW,13.8,-,N/A,,Scattered Clouds,250,2013-02-04 20:50:00
9:20 PM,42.8,35.6,76,29.86,6.2,WSW,15.0,-,N/A,,Scattered Clouds,250,2013-02-04 21:20:00
11:50 PM,42,35,69,29.76,17,WSW,17.3,,,,Scattered Clouds,240,2013-02-04 23:50:00